Regional Weather Roundup
Issued by NWS

Home | Current Version | Previous Version | Graphics & Text | Print | Product List | Glossary On
Versions: 1 2 3 4 5 6 7 8 9 10 11 12 13 14 15 16 17 18 19 20 21 22 23 24 25 26 27 28 29 30 31 32 33 34 35 36 37 38 39 40 41 42 43 44 45 46 47 48 49 50
832
ASUS45 KSLC 240110
RWRUT

UTAH REGIONAL WEATHER ROUNDUP
NATIONAL WEATHER SERVICE SALT LAKE CITY UT
600 PM MST THU NOV 23 2017

UTZ001>011-023>025-240200-

NORTHERN UTAH

CITY           SKY/WX    TMP DP  RH WIND       PRES   REMARKS
BRIGHAM CITY   CLOUDY    52  44  75 CALM      30.10S
HILL AFB       CLOUDY    56  41  57 CALM      30.11F
LOGAN          CLOUDY    53  43  68 NE7       30.08F
OGDEN          CLOUDY    53  44  71 CALM      30.10F
SALT LAKE CITY CLOUDY    53  44  71 S6        30.09F
TOOELE VALLEY  CLOUDY    48  43  81 SW7       30.11F
WENDOVER       CLOUDY    49  40  71 SW6       30.11F
HEBER CITY       N/A     46  32  57 E7        30.15R
WEST JORDAN    CLOUDY    54  43  67 CALM      30.12F

$$

UTZ011>015-024>027-240200-

CENTRAL/NORTHEAST UTAH

CITY           SKY/WX    TMP DP  RH WIND       PRES   REMARKS
PROVO AIRPORT  CLOUDY    50  38  63 CALM      30.13F
MOAB/CANYONLAN PTCLDY    51  30  44 NW9       30.16S
DELTA          MOCLDY    55  34  44 NE3       30.13F
PRICE          CLEAR     44  27  51 NE5       30.22S
RICHFIELD      CLEAR     45  34  65 CALM      30.19R
ROOSEVELT      CLOUDY    43  30  61 W3        30.19R
VERNAL         CLEAR     45  33  63 NW7       30.16S

$$

UTZ013>016-019>022-027-240200-

SOUTHERN UTAH

CITY           SKY/WX    TMP DP  RH WIND       PRES   REMARKS
BRYCE CANYON   PTCLDY    42  26  53 S7        30.30S
CEDAR CITY     CLEAR     57  31  37 S5        30.17F
MILFORD        CLEAR     62  32  32 SW13      30.13S
ST GEORGE      MOCLDY    63  35  35 N6        30.09S
HANKSVILLE     PTCLDY    52  27  37 N6        30.19S
KANAB          CLEAR     50  28  43 NE5       30.21S
BLANDING         N/A     52  30  43 SW3       30.29S

$$

REGIONAL REPORTS     COLORADO/ARIZONA

CITY           SKY/WX    TMP DP  RH WIND       PRES   REMARKS
CRAIG, CO      CLOUDY    41  32  70 CALM      30.18S
GRAND JUNCTION CLEAR     46  31  55 NE3       30.19S
RIFLE, CO      CLOUDY    44  37  76 E3        30.21F
MONTROSE, CO   CLOUDY    50  34  54 CALM      30.23S
CORTEZ, CO     CLOUDY    42  28  57 CALM      30.23S
COLORADO CITY    N/A     61  32  33 NW3       30.19F
PAGE, AZ       MOCLDY    54  32  43 SW3       30.16S
GRAND CANYON   PTCLDY    44  17  33 NE3       30.27S
KINGMAN, AZ    CLEAR     65  29  25 NE5       30.09S
FLAGSTAFF, AZ  PTCLDY    50  29  44 CALM      30.29S

$$

REGIONAL REPORTS    NEVADA/IDAHO/WYOMING

CITY           SKY/WX    TMP DP  RH WIND       PRES   REMARKS
LAS VEGAS, NV  PTCLDY    74  38  27 CALM      30.03S
ELY, NY        CLOUDY    53  27  36 E7        30.20S
ELKO, NV       CLOUDY    55  42  61 CALM      30.11S
POCATELLO, ID  CLOUDY    55  41  59 SW15G29   30.06R
BURLEY, ID     LGT RAIN  56  45  66 CALM      30.03F
FORT BRIDGER,    N/A     49  35  58 W16       30.19F
EVANSTON, WY   CLOUDY    48  33  56 SW9       30.19F
ROCK SPRINGS,  CLOUDY    52  34  50 W20       30.15R
KEMMERER, WY   CLOUDY    45  32  61 W12       30.17S

$$




USA.gov is the U.S. government's official web portal to all federal, state and local government web resources and services.